ONEWEB-0036 (45144 NORAD) Tracking and Keplerian Element Data

This shows tracking and keplerian element data for the satellite.

Feedback or suggestion? Click here.




ElementValue
Catalog45144
NameONEWEB-0036
Epoch Orbit943
Epoch Day94.11460219
Epoch Year2020
RAAN145.3548
Inclination87.5719
Eccentricity0.0027419
Argument of Perigee95.6229
Mean Anonmoly264.8128
Mean Motion14.91549542
Decay Rate-0.00350768
L11 45144U 20008P 20094.11460219 -.00350768 00000-0 -36537-1 0 9993
L22 45144 87.5719 145.3548 0027419 95.6229 264.8128 14.91549542 9434

Live tracking and technical data element details for ONEWEB-0036 (NORAD 45144). ONEWEB-0036 can be tracked NOW for your location showing map with azimuth and elevation plus other details from your city location.

Track the satellite on the map from your city or location and see movement details for azimuth, elevation, latitude, longitude, range, height, and movement on the map or in text.







IsCatalogInMostPopularTable: catalog: 45144, numindb: 10
Update: records affected: 1



GetName: 45144 ONEWEB-0036

Hit Count: updated at: Mon, 06 Apr 2020 11:44:03 GMT